Regional Weather Roundup
Issued by NWS Charleston, SC

Current Version | Previous Version | Text Only | Print | Product List | Glossary Off
Versions: 1 2 3 4 5 6 7 8 9 10 11 12 13 14 15 16 17 18 19 20 21 22 23 24 25 26 27 28 29 30 31 32 33 34 35 36 37 38 39 40 41 42 43 44 45 46 47 48 49 50

000
ASUS42 KCHS 250510
RWRCHS
REGIONAL WEATHER ROUNDUP
NATIONAL WEATHER SERVICE CHARLESTON SC
100 AM EDT SAT OCT 25 2014

NOTE: "FAIR" INDICATES FEW OR NO CLOUDS BELOW 12,000 FEET WITH NO
SIGNIFICANT WEATHER AND/OR OBSTRUCTIONS TO VISIBILITY.

NOT ALL STATIONS ARE QUALITY CONTROLLED BY THE NATIONAL
WEATHER SERVICE. USE DATA WITH CAUTION...ESPECIALLY
DEWPOINT OBSERVATIONS.

SCZ027-030-031-034>040-042>050-250600-
...SOUTH CAROLINA...

CITY           SKY/WX    TMP DP  RH WIND       PRES   REMARKS
N CHARLESTON   PTCLDY    57  51  80 CALM      30.01S
WATERFRONT PRK   N/A     63 N/A N/A NW3         N/A
FORT JOHNSON   NOT AVBL
JOHNS ISLAND   CLEAR     55  54  94 CALM      30.01S
PINOPOLIS      NOT AVBL
MONCKS CORNER  FAIR      54  54 100 CALM      30.00F
SUMMERVILLE    FAIR      54  54 100 CALM      30.01F
BEAUFORT MCAS  CLEAR     56  51  84 CALM      30.01S
BEAUFORT ARPT  FAIR      55  54  94 CALM      30.00S
HILTON HEAD IS NOT AVBL
GEORGETOWN     NOT AVBL
WALTERBORO     PTCLDY    54 N/A N/A E3        30.01S
ORANGEBURG     CLEAR     51  48  89 CALM      30.01S
BARNWELL       FAIR      48  46  93 CALM      30.01F
AIKEN          FAIR      45  45 100 CALM      30.04S
MANNING        FAIR      50 N/A N/A CALM      30.00F
KINGSTREE      NOT AVBL
COLUMBIA       CLEAR     48  43  82 CALM      30.00F
SUMTER         CLEAR     53  48  83 CALM      29.99F
FLORENCE       CLEAR     52  49  89 NW5       29.99F
MYRTLE BEACH   MOCLDY    57  48  72 W3        30.00S
N MYRTLE BEACH MOCLDY    53  50  89 SE3       29.99F

$$

GAZ063-065-086>088-099>101-113>116-118-119-134-136>141-150-250600-
...GEORGIA...

CITY           SKY/WX    TMP DP  RH WIND       PRES   REMARKS
SAVANNAH ARPT  CLEAR     53  48  83 CALM      30.01F
HUNTER AAF     CLEAR     52  50  95 CALM      29.99S
FORT STEWART   CLEAR     49  46  91 CALM      30.00F
STATESBORO     NOT AVBL
SYLVANIA       CLEAR     54  53  96 CALM      30.01F
CLAXTON        FAIR      46  46 100 CALM      30.01F
THOMSON        CLEAR     48  48 100 CALM      30.06S
AUGUSTA-BUSH   CLEAR     46  43  89 CALM      30.01F
AUGUSTA-DANIEL CLEAR     57  47  69 CALM      30.01F
SWAINSBORO     FAIR      52  50  93 MISG      30.01S
VIDALIA        CLEAR     52  48  87 CALM      30.01S
ALMA           CLEAR     47  46  97 CALM      30.01F FOG
WAYCROSS       CLEAR     53  51  95 SW3       30.01F
JESUP          FAIR      48  46  93 CALM      30.01F
BRUNSWICK      CLEAR     50  48  93 CALM      30.02S
SAINT SIMONS   CLEAR     53  50  89 CALM      30.01S

$$

SCZ027-028-034-036>038-045-046-048>050-GAZ119-141-250600-
...LAKE AND SUPPLEMENTAL COASTAL OBSERVATIONS...

STATION/POSITION TIME  TEMP    WIND        PRES    WAVE   SWELL
                       AIR SEA DIR/SP/G            HT/PER HT/PER/DIR
                 (UTC) (F)     (DEG/KT/KT) (MB)    (FT/S) (FT/S/D)
UPR LAKE MARION  NOT AVBL
WINYAH BAY       0400   57     250/  1     1016.0R
LAKE MURRAY      0400   55        CALM     1015.6F
ACE BASIN NERRS  0400   57        CALM     1016.0S
FORT PULASKI     0500   63     260/  2/  3 1016.2F
SAPELO ISLAND    NOT AVBL

$$

ANZ835-935-AMZ111-154-330-350-352-354-374-450-454-472-250600-
...C-MAN AND BUOY OBSERVATIONS...

STATION/POSITION TIME  TEMP    WIND        PRES    WAVE   SWELL
                       AIR SEA DIR/SP/G            HT/PER HT/PER/DIR
                 (UTC) (F)     (DEG/KT/KT) (MB)    (FT/S) (FT/S/D)
FOLLY BEACH CMAN 0400   63     280/  3/  3 1016.5R
BUOY 41004       0500   69 78  340/  4/  6 1015.6R   3/10   3/10
BUOY 41008       0500   70 75  340/  8/ 10 1016.1S   1/11   2/ 80/11
5E ST. MARYS GA  0500      76                N/A     2/11   2/ 80/11
FRYING PAN BUOY  0500   67 73  360/  6/  8 1016.2F   2/10   2/120/10
BUOY 41025       0500   66     320/ 14/ 17 1014.6R   4/ 9   3/ 40/ 9
CAPE LOOKOUT NC  0400   64     320/  6/  8 1014.9S
BUOY 41002       0450   71 77  360/  8/ 10 1014.9R   4/ 9   3/ 20/ 9
BUOY 41010       0500   75 82   30/ 14/ 17 1013.4F   3/10   2/ 40/10
BUOY 41012       NOT AVBL
ST AUGUSTINE FL  0500   63     310/  8/  9 1015.9F
CAPERS NEARSHORE NOT AVBL
FRIPP NEARSHORE  NOT AVBL


$$



USA.gov is the U.S. government's official web portal to all federal, state and local government web resources and services.